Weather reports worldwide

Advertisment
Biarritz, France (7602): temperature & dewpoint: 19.09.2020 02:00:00 - 25.09.2020 02:00:00 (CEST)Biarritz, France (7602): temperature 5cm: 19.09.2020 02:00:00 - 25.09.2020 02:00:00 (CEST)Biarritz, France (7602): temperature -20cm & temperature -100cm: 19.09.2020 02:00:00 - 25.09.2020 02:00:00 (CEST)Biarritz, France (7602): wind speed & gusts: 19.09.2020 02:00:00 - 25.09.2020 02:00:00 (CEST)Biarritz, France (7602): wind direction: 19.09.2020 02:00:00 - 25.09.2020 02:00:00 (CEST)Biarritz, France (7602): reduced air pressure: 19.09.2020 02:00:00 - 25.09.2020 02:00:00 (CEST)Biarritz, France (7602): visibility: 19.09.2020 02:00:00 - 25.09.2020 02:00:00 (CEST)Biarritz, France (7602): sunshine duration: 19.09.2020 02:00:00 - 25.09.2020 02:00:00 (CEST)Biarritz, France (7602): precipitation: 19.09.2020 02:00:00 - 25.09.2020 02:00:00 (CEST)
Date & Time tt [°C] td [°C] tt 5cm [°C] tt -20cm [°C] tt -100cm [°C] ff [km/h] ff [kn] fx [km/h] fx [kn] dd ppp [hPa] vv [km] sd [min] rr [mm]
25.09.2020 02:00:00 14,4 11,0 12,0 19,8 21,0 42 23 74 40 W 1014,5 17 0 0,2
25.09.2020 01:00:00 14,6 11,2 12,5 19,9 21,0 40 21 74 40 W 1014,2 16 0 1,4
25.09.2020 00:00:00 15,1 12,0 13,5 20,1 21,0 37 20 66 36 NW 1013,7 15 0 0,3
24.09.2020 23:00:00 15,9 12,3 13,9 20,2 21,0 28 15 65 35 WNW 1013,3 20 0 0,8
24.09.2020 22:00:00 15,6 12,5 13,9 20,3 21,0 31 17 74 40 NW 1013,2 17 0 3,4
24.09.2020 21:00:00 16,2 13,9 14,8 20,4 21,0 48 26 79 43 WNW 1012,2 6 0 0,4
24.09.2020 20:00:00 18,2 13,7 15,7 20,4 21,0 35 19 58 31 W 1011,7 16 0 0,4
24.09.2020 19:00:00 19,7 12,0 19,5 20,5 21,0 24 13 41 22 W 1011,3 35 1 0,0
24.09.2020 18:00:00 19,8 12,1 20,1 20,4 21,0 27 15 44 24 W 1011,1 36 11 0,0
24.09.2020 17:00:00 19,9 13,1 21,0 20,3 21,0 26 14 42 23 WNW 1011,3 35 16 0,0
24.09.2020 16:00:00 20,7 15,0 22,5 20,1 21,0 31 17 44 24 WNW 1011,2 32 51 0,0
24.09.2020 15:00:00 20,1 14,7 20,9 20,1 21,0 26 14 44 24 W 1011,6 36 43 0,0
24.09.2020 14:00:00 19,2 15,3 18,8 20,0 21,0 19 11 30 16 W 1012,0 39 0 0,0
24.09.2020 13:00:00 18,2 16,9 17,7 19,9 21,0 7 4 22 12 WSW 1012,1 11 0 1,4
24.09.2020 12:00:00 17,5 16,9 16,6 20,0 21,0 7 4 21 11 WSW 1012,4 18 3 2,8
24.09.2020 11:00:00 16,6 16,0 16,2 20,1 21,0 9 5 25 13 W 1012,5 1,9 0 6,5
24.09.2020 10:00:00 16,4 15,1 16,1 20,1 21,0 12 6 29 15 W 1012,5 2,7 0 1,2
24.09.2020 09:00:00 16,9 16,1 16,2 20,2 21,0 8 5 28 15 WSW 1012,3 13 0 1,2
24.09.2020 08:00:00 16,6 16,1 16,3 20,4 21,0 14 8 29 15 WNW 1012,4 2,6 0 16,2
24.09.2020 07:00:00 16,9 16,3 16,2 20,6 21,0 11 6 33 18 W 1012,5 1,9 0 2,8
24.09.2020 06:00:00 17,1 16,1 16,9 20,7 21,0 9 5 22 12 SW 1012,4 36 0 0,0
24.09.2020 05:00:00 17,3 16,5 16,5 20,8 21,1 11 6 35 19 WSW 1012,5 25 0 4,9
24.09.2020 04:00:00 17,4 16,6 16,7 20,8 21,0 9 5 28 15 W 1012,6 16 0 0,0
24.09.2020 03:00:00 17,3 16,7 17,1 20,9 21,0 8 4 18 10 WSW 1012,9 3,9 0 2,6
24.09.2020 02:00:00 17,6 16,5 17,2 20,9 21,1 5 3 10 5 SSW 1012,6 46 0 0,0
24.09.2020 01:00:00 17,4 16,4 17,2 21,0 21,1 5 3 16 8 S 1013,0 42 0 0,0
24.09.2020 00:00:00 17,8 17,0 17,5 21,0 21,1 6 3 18 10 SSW 1013,0 3,6 0 1,2
23.09.2020 23:00:00 18,4 17,6 18,1 21,1 21,1 5 3 14 7 SW 1013,0 20 0 0,2
23.09.2020 22:00:00 18,8 17,6 18,4 21,1 21,1 5 3 12 6 SW 1012,7 20 0 0,0
23.09.2020 21:00:00 19,2 17,3 18,4 21,2 21,1 6 3 16 9 SSW 1012,1 20 0 0,0
23.09.2020 20:00:00 20,1 16,5 19,5 21,2 21,1 13 7 24 13 NW 1011,8 22 0 0,0
23.09.2020 19:00:00 20,7 16,3 20,8 21,2 21,1 10 5 27 15 W 1011,4 34 0 0,0
23.09.2020 18:00:00 21,0 17,0 21,2 21,2 21,1 17 9 34 19 WNW 1011,3 31 0 0,0
23.09.2020 17:00:00 21,0 17,2 21,3 21,1 21,1 22 12 40 22 WNW 1011,2 30 0 0,0
23.09.2020 16:00:00 21,5 17,7 19,1 21,0 21,1 21 11 45 25 W 1010,9 19 0 1,4
23.09.2020 15:00:00 22,7 16,3 22,9 20,8 21,1 29 15 49 27 WNW 1010,1 35 8 0,0
23.09.2020 14:00:00 25,4 16,0 26,2 20,6 21,1 22 12 36 19 W 1009,7 42 32 0,0
23.09.2020 13:00:00 26,2 15,0 29,5 20,4 21,1 12 7 26 14 WSW 1009,4 56 60 0,0
23.09.2020 12:00:00 25,3 13,8 27,3 20,2 21,1 7 4 22 12 S 1009,0 19 53 0,0
23.09.2020 11:00:00 23,4 15,4 24,2 20,2 21,1 6 3 17 9 S 1009,1 44 40 0,0
23.09.2020 10:00:00 20,2 16,4 19,3 20,2 21,1 4 2 8 4 S 1009,3 20 51 0,0
23.09.2020 09:00:00 17,2 17,0 12,0 20,3 21,1 3 2 9 5 SSE 1009,6 13 43 0,0
23.09.2020 08:00:00 14,3 14,0 10,6 20,5 21,2 3 2 11 6 SE 1009,8 10 0 0,0
23.09.2020 07:00:00 14,1 13,6 11,1 20,6 21,2 7 4 15 8 SE 1010,0 10 0 0,0
23.09.2020 06:00:00 14,6 14,1 11,2 20,7 21,2 6 3 12 6 SSE 1010,5 9 0 0,0
23.09.2020 05:00:00 14,7 14,1 11,9 20,8 21,2 7 4 11 6 SSE 1010,9 9 0 0,0
23.09.2020 04:00:00 15,6 15,1 12,0 20,9 21,2 5 3 10 5 S 1011,5 6 0 0,0
23.09.2020 03:00:00 15,9 15,3 12,8 21,1 21,2 4 2 7 4 SW 1012,0 1,1 0 0,0
23.09.2020 02:00:00 16,2 15,4 14,1 21,2 21,2 6 4 9 5 SSE 1012,6 6 0 0,0
23.09.2020 01:00:00 17,3 16,2 14,3 21,3 21,2 4 2 7 4 SW 1012,9 8 0 0,0
23.09.2020 00:00:00 18,0 16,3 14,2 21,4 21,2 5 3 8 4 NNW 1013,1 21 0 0,0
22.09.2020 23:00:00 18,2 16,7 15,2 21,5 21,2 4 2 4 2 WNW 1013,4 16 0 0,0
22.09.2020 22:00:00 18,5 16,8 14,8 21,6 21,2 2 1 6 4 N 1013,3 17 0 0,0
22.09.2020 21:00:00 19,2 16,4 16,3 21,7 21,2 4 2 10 5 N 1012,8 20 0 0,0
22.09.2020 20:00:00 20,1 16,3 19,6 21,7 21,2 8 5 14 8 N 1012,6 29 41 0,0
22.09.2020 19:00:00 21,2 16,8 23,4 21,6 21,2 9 5 21 11 N 1012,6 35 60 0,0
22.09.2020 18:00:00 21,7 15,3 26,2 21,5 21,2 14 7 18 10 N 1012,9 57 60 0,0
22.09.2020 17:00:00 22,5 16,1 28,1 21,3 21,3 9 5 22 12 N 1013,4 36 60 0,0
22.09.2020 16:00:00 22,2 16,0 28,6 20,9 21,3 10 5 20 11 NNW 1014,0 47 60 0,0
22.09.2020 15:00:00 21,9 16,4 28,1 20,7 21,3 11 6 19 10 WNW 1014,6 40 60 0,0
22.09.2020 14:00:00 21,4 17,4 25,3 20,5 21,3 10 5 19 10 W 1015,5 47 39 0,0
22.09.2020 13:00:00 20,8 17,2 22,1 20,3 21,2 10 5 14 8 W 1015,9 38 16 0,0
22.09.2020 12:00:00 19,5 17,5 18,7 20,3 21,3 4 2 12 7 SW 1016,2 20 0 0,2
22.09.2020 11:00:00 18,0 17,0 18,0 20,3 21,3 7 4 13 7 SW 1016,4 12 0 0,6
22.09.2020 10:00:00 17,7 17,1 17,0 20,4 21,3 8 4 15 8 SSW 1016,3 7 0 2,3
22.09.2020 09:00:00 17,2 16,7 16,9 20,4 21,3 7 4 16 9 SW 1016,1 5 0 2,2
22.09.2020 08:00:00 17,1 16,5 16,2 20,5 21,3 8 4 14 8 SSW 1016,0 3,8 0 1,4
22.09.2020 07:00:00 17,0 16,4 16,6 20,5 21,3 6 3 12 6 W 1015,9 14 0 0,0
22.09.2020 06:00:00 16,9 16,4 16,7 20,5 21,3 6 3 12 7 S 1015,9 15 0 0,0
22.09.2020 05:00:00 17,0 16,5 16,7 20,6 21,3 7 4 13 7 SW 1016,5 12 0 0,0
22.09.2020 04:00:00 17,2 16,7 17,0 20,6 21,3 6 3 14 8 WSW 1016,8 6 0 0,2
22.09.2020 03:00:00 17,4 16,8 16,9 20,7 21,4 4 2 8 5 SSW 1017,3 12 0 0,0
22.09.2020 02:00:00 17,5 16,9 17,0 20,7 21,4 4 2 9 5 SW 1017,5 16 0 0,0
22.09.2020 01:00:00 17,9 16,9 17,3 20,8 21,4 3 2 18 10 E 1018,0 8 0 1,0
22.09.2020 00:00:00 17,7 17,1 16,5 20,9 21,4 4 2 10 6 S 1018,2 4,3 0 0,0
21.09.2020 23:00:00 17,5 16,4 16,1 20,9 21,4 7 4 12 7 SSW 1018,3 14 0 0,0
21.09.2020 22:00:00 17,9 16,8 16,9 21,0 21,4 6 3 10 5 SSW 1018,5 16 0 0,0
21.09.2020 21:00:00 18,4 17,2 17,8 21,0 21,4 6 3 12 6 WSW 1018,1 19 0 0,0
21.09.2020 20:00:00 19,2 17,3 19,0 21,0 21,4 10 5 18 10 W 1018,0 40 22 0,0
21.09.2020 19:00:00 19,9 17,1 20,8 20,9 21,4 11 6 29 15 NW 1017,8 47 27 0,0
21.09.2020 18:00:00 20,1 16,3 21,4 20,8 21,4 19 10 36 19 WNW 1017,7 47 13 0,0
21.09.2020 17:00:00 21,5 17,3 21,6 20,7 21,4 16 8 33 18 W 1018,0 32 30 0,0
21.09.2020 16:00:00 21,2 17,8 21,5 20,6 21,4 19 10 29 16 W 1018,2 20 28 0,0
21.09.2020 15:00:00 19,5 17,3 19,6 20,5 21,4 22 12 34 19 W 1018,2 20 0 0,0
21.09.2020 14:00:00 19,3 18,0 18,4 20,5 21,4 16 9 34 18 W 1018,8 14 0 0,2
21.09.2020 13:00:00 18,3 17,7 17,8 20,5 21,4 10 5 23 13 SW 1018,9 6 0 2,8
21.09.2020 12:00:00 18,7 17,5 17,9 20,5 21,4 6 3 18 10 SSW 1018,8 25 0 0,2
21.09.2020 11:00:00 18,0 16,8 17,3 20,6 21,5 10 6 21 11 WSW 1018,7 15 0 1,7
21.09.2020 10:00:00 17,7 16,6 17,1 20,8 21,5 10 5 30 16 WNW 1018,3 3,7 0 14,5
21.09.2020 09:00:00 18,2 17,6 17,6 20,8 21,5 10 5 20 11 W 1018,0 4,6 0 4,0
21.09.2020 08:00:00 17,9 17,3 17,6 20,9 21,5 10 5 23 13 WSW 1017,5 7 0 1,3
21.09.2020 07:00:00 18,1 17,5 17,4 21,0 21,5 9 5 19 10 WSW 1017,1 10 0 0,4
21.09.2020 06:00:00 17,8 17,0 17,4 21,0 21,5 9 5 23 12 WSW 1016,9 7 0 0,6
21.09.2020 05:00:00 18,4 17,7 16,9 21,1 21,5 6 4 45 24 SW 1017,1 16 0 3,0
21.09.2020 04:00:00 18,4 16,7 17,4 21,2 21,5 5 3 18 10 WSW 1017,3 9 0 1,0
21.09.2020 03:00:00 19,0 16,0 18,3 21,2 21,5 6 3 14 8 SW 1017,3 58 0 0,0
21.09.2020 02:00:00 18,7 16,5 17,8 21,3 21,5 7 4 15 8 SW 1017,7 48 0 0,0
21.09.2020 01:00:00 18,7 16,5 17,9 21,4 21,5 7 4 18 10 SW 1017,7 48 0 0,0
21.09.2020 00:00:00 19,1 16,5 17,8 21,5 21,5 7 4 13 7 SSW 1017,7 50 0 0,0
20.09.2020 23:00:00 19,7 16,3 18,7 21,6 21,5 6 4 17 9 SSW 1017,8 50 0 0,0
20.09.2020 22:00:00 19,9 16,3 18,7 21,7 21,5 13 7 21 11 W 1017,7 58 0 0,0
20.09.2020 21:00:00 19,9 16,3 19,1 21,7 21,5 11 6 23 12 W 1017,2 59 0 0,0
20.09.2020 20:00:00 20,3 16,1 19,8 21,8 21,6 13 7 27 15 WNW 1016,6 60 0 0,0
20.09.2020 19:00:00 20,9 16,3 21,2 21,7 21,6 21 11 30 16 W 1016,2 53 19 0,0
20.09.2020 18:00:00 22,1 17,2 23,1 21,7 21,6 19 10 29 16 WNW 1015,7 60 41 0,0
20.09.2020 17:00:00 21,6 16,8 23,3 21,5 21,6 17 9 37 20 WNW 1016,1 44 25 0,0
20.09.2020 16:00:00 22,5 18,1 24,3 21,3 21,6 25 14 40 22 WNW 1016,1 19 37 0,0
20.09.2020 15:00:00 23,0 17,9 24,3 21,1 21,6 25 14 38 21 W 1016,0 35 52 0,0
20.09.2020 14:00:00 22,1 17,2 24,5 20,9 21,6 23 13 41 22 W 1016,2 39 34 0,0
20.09.2020 13:00:00 22,5 16,5 23,3 20,9 21,6 23 13 43 23 W 1016,2 42 54 0,0
20.09.2020 12:00:00 21,4 15,5 21,8 20,8 21,6 19 10 37 20 W 1016,4 48 7 0,0
20.09.2020 11:00:00 20,8 15,1 21,2 20,8 21,6 16 9 30 16 WSW 1016,1 48 15 0,0
20.09.2020 10:00:00 20,8 14,9 18,9 20,9 21,6 10 5 27 14 WSW 1015,4 32 24 0,0
20.09.2020 09:00:00 18,9 14,4 18,3 20,9 21,6 10 5 19 10 SW 1015,2 56 10 0,0
20.09.2020 08:00:00 18,7 14,4 18,0 21,0 21,6 9 5 23 13 SW 1014,8 60 0 0,0
20.09.2020 07:00:00 18,7 15,4 17,1 21,1 21,6 9 5 16 9 SW 1014,7 52 0 0,0
20.09.2020 06:00:00 18,7 15,2 16,7 21,2 21,6 8 5 26 14 SW 1014,6 41 0 0,4
20.09.2020 05:00:00 18,5 15,2 17,1 21,3 21,6 8 4 23 12 SW 1014,8 18 0 0,0
20.09.2020 04:00:00 19,4 15,5 16,7 21,4 21,6 11 6 25 14 WSW 1014,7 56 0 0,0
20.09.2020 03:00:00 17,8 15,2 16,6 21,5 21,6 9 5 16 9 SSW 1014,6 36 0 0,0
20.09.2020 02:00:00 18,0 15,3 16,5 21,6 21,7 9 5 17 9 SW 1014,7 40 0 0,0
20.09.2020 01:00:00 17,5 15,5 16,5 21,7 21,6 7 4 13 7 SW 1014,6 56 0 0,0
20.09.2020 00:00:00 17,6 15,9 17,0 21,8 21,6 7 4 14 8 SW 1014,9 19 0 0,0
19.09.2020 23:00:00 17,8 16,7 17,3 21,9 21,7 6 3 24 13 SW 1014,7 33 0 0,0
19.09.2020 22:00:00 18,2 17,0 17,7 22,0 21,6 18 10 36 19 W 1014,5 6 0 1,8
19.09.2020 21:00:00 18,6 17,8 17,9 22,1 21,6 7 4 14 7 WSW 1013,8 0,8 0 5,1
19.09.2020 20:00:00 18,8 17,6 18,5 22,1 21,7 5 3 9 5 SSW 1013,2 37 4 0,0
19.09.2020 19:00:00 19,7 18,4 18,2 22,1 21,6 4 2 11 6 SSE 1012,8 40 41 0,2
19.09.2020 18:00:00 18,0 17,4 17,3 22,2 21,7 9 5 38 21 W 1012,3 4,9 0 7,5
19.09.2020 17:00:00 18,9 17,2 18,2 22,2 21,7 26 14 39 21 W 1011,8 11 0 0,4
19.09.2020 16:00:00 22,2 16,0 19,4 22,1 21,7 8 5 11 6 NNW 1010,9 10 0 0,4
19.09.2020 15:00:00 23,5 14,5 22,8 22,0 21,7 4 2 26 14 S 1011,0 23 0 0,0
19.09.2020 14:00:00 22,4 14,8 19,0 21,9 21,7 16 9 41 22 SSW 1011,6 35 1 0,0
19.09.2020 13:00:00 25,7 13,9 27,3 21,7 21,7 15 8 33 18 S 1011,0 58 23 0,0
19.09.2020 12:00:00 26,0 14,1 28,1 21,6 21,7 11 6 32 17 S 1011,3 40 48 0,0
19.09.2020 11:00:00 24,6 13,2 23,8 21,6 21,7 15 8 35 19 S 1011,5 55 25 0,0
19.09.2020 10:00:00 22,9 13,7 22,6 21,6 21,7 7 4 26 14 S 1011,3 57 0 0,0
19.09.2020 09:00:00 22,5 13,3 21,6 21,7 21,7 6 4 30 16 S 1010,8 60 28 0,0
19.09.2020 08:00:00 22,5 13,0 19,4 21,8 21,7 10 6 33 18 S 1010,3 60 0 0,0
19.09.2020 07:00:00 21,9 13,3 19,3 21,8 21,7 5 3 16 8 S 1010,0 60 0 0,0
19.09.2020 06:00:00 22,6 13,6 21,2 21,9 21,7 11 6 28 15 SSE 1010,1 60 0 0,0
19.09.2020 05:00:00 22,5 14,1 21,2 22,0 21,7 8 5 22 12 S 1010,3 60 0 0,0
19.09.2020 04:00:00 22,9 13,7 21,5 22,1 21,7 12 7 32 17 S 1010,7 60 0 0,0
19.09.2020 03:00:00 22,8 13,6 20,7 22,2 21,7 11 6 28 15 S 1010,7 60 0 0,0
19.09.2020 02:00:00 22,2 14,1 19,1 22,3 21,7 9 5 24 13 S 1010,8 60 0 0,0

tt = temperature
td = dewpoint
tt 5cm = temperature 5cm
tt -20cm = temperature -20cm
tt -100cm = temperature -100cm
ff = wind speed
fx = gusts
dd = wind direction
ppp = reduced air pressure
vv = visibility
sd = sunshine duration
rr = precipitation

Next stations